TimeMDT,TemperatureF,Dew PointF,Humidity,Sea Level PressureIn,VisibilityMPH,Wind Direction,Wind SpeedMPH,Gust SpeedMPH,PrecipitationIn,Events,Conditions,WindDirDegrees,DateUTC
12:53 AM,63.0,35.1,35,29.85,10.0,WSW,13.8,-,N/A,,Clear,250,2013-05-15 06:53:00
1:53 AM,62.1,35.1,37,29.85,10.0,SW,12.7,-,N/A,,Clear,220,2013-05-15 07:53:00
2:53 AM,60.1,35.1,39,29.85,10.0,SSW,10.4,-,N/A,,Clear,210,2013-05-15 08:53:00
3:53 AM,59.0,35.1,41,29.84,10.0,SSW,12.7,-,N/A,,Clear,200,2013-05-15 09:53:00
4:53 AM,57.0,34.0,42,29.85,10.0,SW,11.5,-,N/A,,Clear,220,2013-05-15 10:53:00
5:53 AM,54.0,34.0,47,29.86,10.0,South,9.2,-,N/A,,Clear,190,2013-05-15 11:53:00
6:53 AM,55.0,34.0,45,29.86,10.0,SSW,10.4,-,N/A,,Clear,200,2013-05-15 12:53:00
7:53 AM,60.1,33.1,36,29.86,10.0,SSW,12.7,-,N/A,,Clear,210,2013-05-15 13:53:00
8:53 AM,64.0,34.0,33,29.86,10.0,WSW,11.5,-,N/A,,Clear,240,2013-05-15 14:53:00
9:53 AM,66.0,36.0,33,29.87,10.0,West,12.7,-,N/A,,Clear,270,2013-05-15 15:53:00
10:53 AM,68.0,36.0,31,29.86,10.0,West,12.7,-,N/A,,Clear,260,2013-05-15 16:53:00
11:53 AM,70.0,36.0,29,29.84,10.0,West,9.2,-,N/A,,Clear,260,2013-05-15 17:53:00
12:53 PM,73.0,37.0,27,29.81,10.0,NW,9.2,-,N/A,,Clear,320,2013-05-15 18:53:00
1:53 PM,75.0,34.0,22,29.78,10.0,WNW,11.5,-,N/A,,Clear,300,2013-05-15 19:53:00
2:53 PM,73.0,33.1,23,29.78,10.0,NW,6.9,-,N/A,,Scattered Clouds,320,2013-05-15 20:53:00
3:53 PM,72.0,33.1,24,29.75,10.0,Calm,Calm,-,N/A,,Overcast,0,2013-05-15 21:53:00
4:53 PM,77.0,37.0,24,29.73,10.0,NNE,5.8,-,N/A,,Clear,20,2013-05-15 22:53:00
5:53 PM,75.9,37.9,25,29.71,10.0,Variable,3.5,-,N/A,,Clear,0,2013-05-15 23:53:00
6:53 PM,75.0,35.1,23,29.70,10.0,NW,8.1,-,N/A,,Clear,310,2013-05-16 00:53:00
7:53 PM,73.9,35.1,24,29.68,10.0,NW,5.8,-,N/A,,Scattered Clouds,320,2013-05-16 01:53:00
8:53 PM,66.0,37.9,36,29.70,10.0,WSW,6.9,-,N/A,,Clear,250,2013-05-16 02:53:00
9:53 PM,62.1,37.0,39,29.73,10.0,SW,9.2,-,N/A,,Clear,230,2013-05-16 03:53:00
10:53 PM,62.1,34.0,35,29.73,10.0,WSW,12.7,-,N/A,,Clear,250,2013-05-16 04:53:00
11:53 PM,61.0,34.0,36,29.74,10.0,SW,13.8,-,N/A,,Partly Cloudy,230,2013-05-16 05:53:00